Location: Filler
(36.7551°N, 30.4456°E)
Time: 07:46:01
(UTC+00:00)

FENGYUN 3A - Pass Details

Date: 22 September 2024
Orbit: 821 x 835 km, 98.6° (Epoch: 12 October)

Event Time Altitude Azimuth Distance (km) Brightness Sun altitude
Rises 01:40:42 0° 352° (N) 3,363 7.0 -25.4°
Reaches altitude 10° 01:44:08 10° 329° (NNW) 2,424 6.0 -24.8°
Enters shadow 01:44:23 11° 327° (NNW) 2,376 5.9 -24.7°
